ARCTURUS

Last updated on Wed Jul 02 2025 00:02:48 GMT+0000 (Coordinated Universal Time)

1 56371U 23060B 25182.55120339 -.00000223 00000+0 00000+0 0 9995 2 56371 1.8721 84.3942 0001971 77.8093 235.2455 1.00271969 7935
UTC large
Height (km)
Speed (km/s)
/
Latitude / Longitude
Inclination (degrees)
Orbital Period (minutes)
Azimuth
Elevation
Range (km)
Doppler Factor

Next 0 passes for location: London (51.5072 / 0.1276)

Sorry there are no passes over London.